Hourly Data Report for September 12, 2017

All times are specified in Local Standard Time (LST). Add 1 hour to adjust for Daylight Saving Time where and when it is observed.

SUMMERSIDE
PRINCE EDWARD ISLAND

46°26'28.000" N
63°50'17.000" W
12.20 m
8300596
71702
WSD

Download Data

Hourly Data (September 2017)
Hourly Data Report for September 12, 2017
Temp Definition
°C
Dew Point Temp Definition
°C
Rel Hum Definition
%
Wind Dir Definition
10's deg

Wind Spd Definition
km/h
Visibility Definition
km
Stn Press Definition
kPa
Hmdx Definition


Wind Chill Definition


Weather Definition


TIME
00:00 13.8 10.6 81 1 24   101.19     LegendNANA
01:00 13.6 10.7 83 36 21   101.17     LegendNANA
02:00 13.9 10.3 79 1 24   101.12     LegendNANA
03:00 13.7 10.2 79 1 23   101.07     LegendNANA
04:00 13.9 10.0 77 1 24   101.04     LegendNANA
05:00 13.4 9.9 79 1 20   101.01     LegendNANA
06:00 11.0 8.3 83 35 13   101.00     LegendNANA
07:00 11.8 10.1 90 33 12   100.99     LegendNANA
08:00 13.7 11.0 84 35 11   101.00     LegendNANA
09:00 15.9 10.2 69 1 21   100.98     LegendNANA
10:00 16.5 10.8 69 3 19   100.92     LegendNANA
11:00 16.5 10.0 65 3 17   100.85     LegendNANA
12:00 17.2 10.1 63 4 15   100.80     LegendNANA
13:00 17.7 10.3 62 5 15   100.74     LegendNANA
14:00 17.9 10.4 62 6 14   100.65     LegendNANA
15:00 18.2 9.7 58 5 10   100.58     LegendNANA
16:00 18.0 10.4 61 5 10   100.56     LegendNANA
17:00 16.7 10.4 67 5 10   100.49     LegendNANA
18:00 15.7 10.9 73 7 12   100.46     LegendNANA
19:00 13.7 10.7 82 10 11   100.43     LegendNANA
20:00 13.6 10.3 81 12 7   100.45     LegendNANA
21:00 13.7 10.2 79 12 12   100.42     LegendNANA
22:00 13.2 10.4 84 9 3   100.43     LegendNANA
23:00 13.8 10.1 79 14 5   100.38     LegendNANA

Notes on Data Quality.

Legend

  • E = Estimated
  • M = Missing
  • NA = Not Available
  • ‡ = Partner data that is not subject to review by the National Climate Archives
Date modified: